Terug naar catalogus

STARLINK-5694

ActiefCommunicatieVLEO
NORAD 55481·PAYLOAD·🇺🇸 United States

Gelanceerd Feb 2, 2023 vanaf Cape Canaveral Space Force Station

Loading…

Volgende Passages (komende 24 uur)

TLE

VersSource: CelesTrak SupGP

Epoch: Sep 15, 2026, 03:01 UTC

1 55481C 23015AJ  26258.12618056  .00026591  00000+0  96321-3 0  2580
2 55481  43.0041 350.0337 0001959 280.0300 149.4867 15.27561959    15

Volg STARLINK-5694 in realtime met AllMySat

Download on the App Store